User: anonymous   Login
Location: Unspecified
(0.0000°N, 0.0000°E)
Time: 04:16:23
(UTC+00:00)
Language:

STARLINK-31236 - Orbit

View from above orbital plane
View from above orbital plane
View from above satellite
View from above satellite

Ground track
Ground track

The orbit is defined by the following mean orbital elements,

1 58841U          26145.56030361 +.00000000 +00000-0 -42533-5 0 00004
2 58841  53.1603 207.3914 0001113  85.6082 274.5046 15.30188391    04
Epoch (UTC): 25 May 2026 13:26:50
Eccentricity: 0.0001113
inclination: 53.1603°
perigee height: 474 km
apogee height: 476 km
right ascension of ascending node: 207.3914°
argument of perigee: 85.6082°
revolutions per day: 15.30188391
mean anomaly at epoch: 274.5046°

The dashed part of the orbit path shows where the satellite is in the earth's shadow,  

DLR